1500908400.56,33998,23.0,73682.5,10.57,-9.37,-7.95,0,*40
1500908401.78,33999,23.0,73682.0,10.59,-7.83,-7.01,0,*43
1500908403.02,34000,23.0,73680.8,10.61,-5.85,-5.47,0,*42
1500908404.23,34001,23.0,73684.5,10.59,-3.67,-3.07,0,*40
1500908405.48,34002,23.0,73684.8,10.59,-2.75,-2.03,0,*44
1500908406.69,34003,23.0,73682.0,10.59,-1.09,-0.15,0,*78
1500908407.88,34004,23.0,73678.5,10.61,-0.49,0.97,0,*66
1500908409.09,34005,23.0,73676.8,10.59,-1.55,1.29,0,*64
1500908410.35,34006,23.0,73674.8,10.61,-2.11,0.91,0,*5D
1500908411.57,34007,23.0,73676.5,10.61,-4.05,-0.37,0,*7E
1500908412.79,34008,23.0,73674.0,10.61,-3.03,-0.89,0,*75
1500908413.99,34009,23.0,73680.5,10.59,-3.39,-1.79,0,*48
1500908415.24,34010,23.0,73680.5,10.61,-3.79,-2.59,0,*4E
1500908416.45,34011,23.0,73680.3,10.63,-7.27,-4.49,0,*45
1500908417.69,34012,23.0,73684.0,10.61,-7.95,-5.35,0,*47
1500908418.9,34013,23.0,73684.8,10.61,-6.47,-5.35,0,*48
1500908420.13,34014,23.0,73686.0,10.61,-6.27,-4.29,0,*45
1500908421.38,34015,23.0,73684.3,10.61,-7.65,-5.55,0,*49
1500908422.62,34016,23.0,73682.5,10.63,-7.69,-6.19,0,*4F
1500908423.82,34017,23.0,73682.5,10.67,-6.43,-5.55,0,*48
1500908425.02,34018,23.0,73678.5,10.67,-4.81,-3.39,0,*47
1500908426.23,34019,23.0,73678.3,10.67,-6.05,-3.59,0,*4E
1500908427.47,34020,23.0,73678.8,10.67,-7.01,-4.85,0,*47
1500908428.65,34021,23.0,73676.8,10.67,-9.79,-8.45,0,*47
1500908429.84,34022,23.0,73682.8,10.63,-9.75,-8.41,0,*48
1500908431.04,34023,23.0,73682.0,10.63,-8.37,-6.89,0,*44
1500908432.28,34024,23.0,73682.0,10.63,-7.95,-6.63,0,*40
1500908433.55,34025,23.0,73680.8,10.61,-6.97,-5.07,0,*41
1500908434.75,34026,23.0,73680.8,10.63,-6.35,-4.65,0,*4D
1500908435.97,34027,23.0,73682.8,10.63,-6.35,-4.73,0,*4B
1500908437.21,34028,23.0,73678.3,10.63,-5.81,-3.51,0,*4F
1500908438.42,34029,23.0,73676.0,10.67,-7.27,-4.37,0,*43
1500908439.64,34030,23.0,73676.5,10.67,-7.65,-6.55,0,*4B
1500908440.82,34031,23.0,73682.5,10.67,-8.33,-7.23,0,*46
1500908442.04,34032,23.0,73682.3,10.67,-8.41,-7.61,0,*46
1500908443.25,34033,23.0,73686.0,10.67,-7.95,-7.15,0,*42
1500908444.46,34034,23.0,73684.8,10.69,-8.17,-7.05,0,*4F
1500908445.67,34035,23.0,73690.0,10.71,-8.93,-8.67,0,*40
1500908446.92,34036,23.0,73686.0,10.71,-7.43,-7.23,0,*4E
1500908448.14,34037,23.0,73686.3,10.71,-5.97,-4.57,0,*44
1500908449.39,34038,23.0,73680.8,10.71,-6.97,-5.35,0,*4D
1500908450.62,34039,23.0,73676.5,10.75,-7.99,-6.73,0,*46
1500908451.86,34040,23.0,73676.8,10.75,-7.87,-6.63,0,*46
1500908453.05,34041,23.0,73680.0,10.77,-8.63,-7.15,0,*40
1500908454.26,34042,23.0,73680.5,10.77,-7.35,-6.85,0,*47
1500908455.5,34043,23.0,73680.8,10.77,-5.27,-4.89,0,*49
1500908456.74,34044,23.0,73684.8,10.79,-3.95,-3.59,0,*45
1500908457.95,34045,23.0,73684.5,10.77,-1.43,-0.69,0,*73
1500908459.13,34046,23.0,73686.8,10.77,-0.07,1.71,0,*64
1500908460.36,34047,23.0,73682.8,10.79,-0.57,2.59,0,*57
1500908461.62,34048,23.0,73680.3,10.79,-2.07,1.51,0,*64
1500908462.82,34049,23.0,73678.5,10.77,-2.87,0.51,0,*52
1500908464.01,34050,23.0,73678.3,10.77,-6.89,-2.23,0,*4A
1500908465.25,34051,23.0,73680.0,10.79,-8.55,-4.73,0,*49
1500908466.49,34052,23.0,73682.8,10.79,-8.11,-5.51,0,*4B
1500908467.73,34053,23.0,73680.8,10.79,-8.25,-6.27,0,*4F
1500908468.92,34054,23.0,73678.5,10.77,-8.71,-6.69,0,*4D
1500908470.14,34055,23.0,73676.0,10.79,-8.93,-7.49,0,*4D
1500908471.41,34056,23.0,73678.3,10.79,-8.51,-7.65,0,*4E
1500908472.65,34057,23.0,73678.3,10.79,-8.85,-7.65,0,*46
1500908473.9,34058,23.0,73678.5,10.79,-9.05,-7.99,0,*43
1500908475.11,34059,23.0,73678.5,10.79,-9.23,-8.37,0,*4D
1500908476.36,34060,23.0,73672.8,10.79,-9.41,-8.85,0,*4A
1500908477.55,34061,23.0,73676.0,10.77,-8.75,-8.45,0,*4F
1500908478.72,34062,23.0,73678.8,10.77,-8.97,-8.63,0,*44
1500908479.94,34063,23.0,73680.0,10.77,-9.23,-9.11,0,*4F
1500908481.21,34064,23.0,73680.3,10.79,-9.37,-9.37,0,*47
1500908482.41,34065,23.0,73682.8,10.79,-8.97,-9.31,0,*4B
1500908483.65,34066,23.0,73672.0,10.77,-9.41,-9.83,0,*45
1500908484.84,34067,23.0,73678.0,10.77,-9.27,-9.71,0,*49
1500908486.03,34068,23.0,73678.5,10.77,-8.71,-9.23,0,*43
1500908487.24,34069,23.0,73676.3,10.79,-8.67,-9.19,0,*42
1500908488.48,34070,23.0,73678.0,10.79,-8.97,-9.49,0,*40
1500908489.72,34071,23.0,73682.0,10.79,-8.51,-9.19,0,*4E
1500908490.93,34072,23.0,73684.3,10.77,-8.71,-9.41,0,*4C
1500908492.15,34073,23.0,73682.8,10.77,-8.63,-9.45,0,*4A
1500908493.36,34074,23.0,73682.0,10.77,-8.55,-9.41,0,*4C
1500908494.6,34075,23.0,73682.5,10.79,-8.55,-9.53,0,*40
1500908495.85,34076,23.0,73680.3,10.77,-9.41,-10.41,0,*72
1500908497.05,34077,23.0,73678.3,10.77,-8.85,-9.93,0,*4D
1500908498.24,34078,23.0,73682.8,10.77,-8.85,-9.71,0,*4E
1500908499.45,34079,23.0,73680.0,10.77,-7.95,-8.89,0,*47
1500908500.66,34080,23.0,73678.5,10.77,-8.21,-9.11,0,*41
1500908501.85,34081,23.0,73676.3,10.77,-7.83,-8.89,0,*47
1500908503.08,34082,23.0,73674.3,10.77,-8.03,-9.11,0,*43
1500908504.26,34083,23.0,73676.8,10.77,-7.49,-8.41,0,*47
1500908505.47,34084,23.0,73676.0,10.77,-6.81,-7.91,0,*47
1500908506.65,34085,23.0,73674.0,10.77,-7.83,-8.63,0,*47
1500908507.83,34086,23.0,73668.3,10.77,-8.63,-9.23,0,*40
1500908509.01,34087,23.0,73668.3,10.73,-8.45,-8.67,0,*40
1500908510.23,34088,23.0,73674.8,10.73,-6.93,-7.15,0,*40
1500908511.44,34089,23.0,73674.8,10.73,-5.85,-6.89,0,*41
1500908512.68,34090,23.0,73678.5,10.75,-4.53,-4.81,0,*4F
1500908513.95,34091,23.0,73678.0,10.75,-5.07,-4.81,0,*4E
1500908515.2,34092,23.0,73676.5,10.75,-5.97,-5.31,0,*4E
1500908516.39,34093,23.0,73676.5,10.73,-6.13,-5.55,0,*44
1500908517.63,34094,23.0,73676.0,10.73,-5.61,-5.31,0,*47
1500908518.82,34095,23.0,73676.3,10.73,-6.05,-5.47,0,*46
1500908520.06,34096,23.0,73678.5,10.73,-5.85,-5.81,0,*44
1500908521.27,34097,23.0,73674.5,10.73,-5.93,-5.35,0,*4D
1500908522.46,34098,23.0,73680.0,10.73,-6.85,-6.09,0,*4A
1500908523.67,34099,23.0,73678.3,10.75,-8.63,-8.63,0,*49
1500908524.88,34100,23.0,73672.5,10.73,-9.19,-9.61,0,*41
1500908526.08,34101,23.0,73676.0,10.69,-8.37,-9.05,0,*44
1500908527.29,34102,23.0,73676.3,10.69,-7.69,-8.41,0,*42
1500908528.5,34103,23.0,73676.0,10.69,-7.23,-7.91,0,*4F
1500908529.72,34104,23.0,73682.8,10.69,-6.77,-7.35,0,*46
1500908530.95,34105,23.0,73678.3,10.69,-6.81,-7.43,0,*4F
1500908532.17,34106,23.0,73678.5,10.69,-7.23,-7.61,0,*45
1500908533.36,34107,23.0,73676.8,10.69,-6.77,-6.89,0,*43
1500908534.63,34108,23.0,73676.5,10.71,-5.77,-5.65,0,*47
1500908535.84,34109,23.0,73678.3,10.73,-6.43,-6.27,0,*45
1500908537.06,34110,23.0,73676.8,10.75,-6.77,-6.73,0,*4D
1500908538.31,34111,23.0,73676.8,10.75,-7.01,-7.05,0,*4C
1500908539.5,34112,23.0,73678.3,10.73,-6.73,-6.85,0,*44
1500908540.77,34113,23.0,73674.0,10.75,-7.73,-7.95,0,*42
1500908541.98,34114,23.0,73676.8,10.73,-8.93,-8.81,0,*48
1500908543.22,34115,23.0,73676.5,10.69,-7.69,-7.77,0,*4E
1500908544.43,34116,23.0,73676.3,10.71,-6.69,-7.19,0,*4D
1500908545.64,34117,23.0,73678.0,10.69,-6.77,-7.05,0,*47
1500908546.89,34118,23.0,73680.8,10.71,-6.09,-6.27,0,*49
1500908548.09,34119,23.0,73676.0,10.73,-6.27,-5.97,0,*4E
1500908549.31,34120,23.0,73678.3,10.75,-6.89,-6.89,0,*4A
1500908550.5,34121,23.0,73676.5,10.73,-7.19,-7.15,0,*41
1500908551.74,34122,23.0,73680.8,10.75,-7.53,-7.39,0,*44
1500908552.98,34123,23.0,73676.5,10.73,-8.11,-8.11,0,*4F
1500908554.19,34124,23.0,73676.5,10.73,-7.83,-7.65,0,*40
1500908555.37,34125,23.0,73680.3,10.73,-8.33,-8.33,0,*49
1500908556.61,34126,23.0,73680.0,10.73,-8.07,-7.99,0,*42
1500908557.82,34127,23.0,73674.8,10.73,-7.65,-7.53,0,*4E
1500908559.08,34128,23.0,73680.0,10.71,-7.31,-6.93,0,*4F
1500908560.32,34129,23.0,73672.0,10.73,-7.27,-6.63,0,*44
1500908561.52,34130,23.0,73676.8,10.73,-7.53,-7.05,0,*4E
1500908562.73,34131,23.0,73674.0,10.73,-7.39,-7.15,0,*42
1500908563.97,34132,23.0,73678.5,10.75,-7.27,-7.15,0,*48
1500908565.15,34133,23.0,73676.0,10.73,-7.53,-7.19,0,*40
1500908566.39,34134,23.0,73680.0,10.73,-8.07,-7.57,0,*43
1500908567.58,34135,23.0,73680.8,10.73,-8.21,-7.87,0,*4B
1500908568.85,34136,23.0,73676.3,10.75,-8.51,-7.69,0,*49
1500908570.05,34137,23.0,73674.3,10.73,-8.33,-6.93,0,*4E
1500908571.27,34138,23.0,73676.3,10.73,-8.67,-7.31,0,*49
1500908572.45,34139,23.0,73682.0,10.73,-9.27,-8.33,0,*40
1500908573.67,34140,23.0,73678.5,10.73,-9.15,-8.45,0,*4E
1500908574.89,34141,23.0,73680.3,10.71,-9.05,-8.41,0,*48
1500908576.15,34142,23.0,73676.3,10.71,-7.91,-7.35,0,*44
1500908577.37,34143,23.0,73674.8,10.69,-7.77,-7.19,0,*4A
1500908578.65,34144,23.0,73672.5,10.71,-7.73,-7.43,0,*4F
1500908579.89,34145,23.0,73670.5,10.71,-8.17,-7.77,0,*44
1500908581.09,34146,23.0,73672.3,10.69,-8.55,-8.37,0,*43
1500908582.33,34147,23.0,73670.8,10.71,-8.51,-8.25,0,*4C
1500908583.6,34148,23.0,73674.3,10.71,-8.03,-7.61,0,*4B
1500908584.81,34149,23.0,73676.3,10.73,-8.25,-7.99,0,*4B
1500908586.02,34150,23.0,73676.3,10.73,-8.67,-8.51,0,*4E
1500908587.23,34151,23.0,73676.0,10.73,-9.05,-8.81,0,*47
1500908588.44,34152,23.0,73676.0,10.73,-8.45,-7.69,0,*48
1500908589.65,34153,23.0,73676.3,10.73,-8.33,-7.43,0,*40
1500908590.93,34154,23.0,73674.0,10.71,-8.51,-7.73,0,*42
1500908592.17,34155,23.0,73668.5,10.71,-8.41,-7.69,0,*49
1500908593.42,34156,23.0,73668.3,10.71,-8.55,-7.73,0,*44
1500908594.64,34157,23.0,73676.8,10.71,-9.05,-8.17,0,*4C
1500908595.85,34158,23.0,73676.5,10.71,-9.93,-9.19,0,*43
1500908597.03,34159,23.0,73674.5,10.69,-9.89,-9.05,0,*4D
1500908598.25,34160,23.0,73676.8,10.69,-8.85,-8.11,0,*4E
1500908599.47,34161,23.0,73672.3,10.69,-8.85,-8.03,0,*4C
1500908600.69,34162,23.0,73672.3,10.69,-8.85,-8.11,0,*4C
1500908601.88,34163,23.0,73670.5,10.69,-8.37,-7.19,0,*43
1500908603.09,34164,23.0,73668.8,10.69,-8.93,-7.23,0,*43
1500908604.27,34165,23.0,73672.0,10.67,-9.27,-7.49,0,*4E
1500908605.48,34166,23.0,73674.8,10.67,-9.53,-7.83,0,*48
1500908606.68,34167,23.0,73668.3,10.67,-8.71,-7.15,0,*47
1500908607.89,34168,23.0,73672.5,10.67,-8.89,-7.39,0,*41
1500908609.07,34169,23.0,73676.8,10.67,-9.93,-8.55,0,*4F
1500908610.26,34170,23.0,73680.5,10.63,-10.53,-8.89,0,*76
1500908611.51,34171,23.0,73680.5,10.63,-9.15,-7.57,0,*41
1500908612.73,34172,23.0,73678.0,10.63,-8.59,-6.97,0,*46
1500908613.94,34173,23.0,73672.3,10.63,-8.75,-7.05,0,*43
1500908615.16,34174,23.0,73676.0,10.63,-9.05,-7.01,0,*46
1500908616.4,34175,23.0,73678.8,10.63,-9.15,-7.05,0,*42
1500908617.6,34176,23.0,73672.5,10.63,-8.93,-6.89,0,*4B
1500908618.81,34177,23.0,73682.8,10.63,-9.57,-7.53,0,*45
1500908620.06,34178,23.0,73682.0,10.61,-9.53,-7.31,0,*48
1500908621.33,34179,23.0,73682.3,10.61,-9.41,-7.27,0,*4D
1500908622.58,34180,23.0,73676.8,10.61,-8.71,-6.63,0,*48
1500908623.81,34181,23.0,73672.3,10.61,-9.19,-6.97,0,*4D
1500908625.01,34182,23.0,73676.8,10.59,-8.85,-6.77,0,*4F
1500908626.24,34183,23.0,73672.3,10.59,-9.11,-6.81,0,*4B
1500908627.47,34184,23.0,73682.5,10.59,-9.45,-7.11,0,*45
1500908628.68,34185,23.0,73682.5,10.59,-9.57,-7.11,0,*47
1500908629.88,34186,23.0,73676.0,10.59,-9.75,-7.11,0,*44
1500908631.11,34187,23.0,73678.8,10.57,-9.83,-6.85,0,*4E
1500908632.34,34188,23.0,73676.0,10.57,-9.83,-6.73,0,*48
1500908633.54,34189,23.0,73680.5,10.55,-10.45,-7.23,0,*7D
1500908634.74,34190,23.0,73676.3,10.55,-10.19,-7.15,0,*79
1500908635.96,34191,23.0,73670.3,10.55,-11.77,-8.71,0,*7C
1500908637.21,34192,23.0,73674.3,10.51,-10.71,-7.69,0,*7A
1500908638.4,34193,23.0,73672.0,10.51,-10.05,-7.15,0,*73
1500908639.64,34194,23.0,73674.3,10.49,-9.31,-6.27,0,*42
1500908640.87,34195,23.0,73678.0,10.49,-9.31,-6.35,0,*40
1500908642.09,34196,23.0,73672.5,10.49,-9.23,-6.35,0,*40
1500908643.32,34197,23.0,73672.3,10.49,-9.89,-7.01,0,*47
1500908644.54,34198,23.0,73676.0,10.49,-9.19,-6.39,0,*4B
1500908645.78,34199,23.0,73678.0,10.49,-9.61,-6.89,0,*4E
1500908647.0,34200,23.0,73676.0,10.47,-9.53,-6.81,0,*4A
1500908648.24,34201,23.0,73672.5,10.49,-9.45,-6.77,0,*4B
1500908649.47,34202,23.0,73672.8,10.49,-9.31,-6.55,0,*4B
1500908650.69,34203,23.0,73672.8,10.49,-9.05,-6.35,0,*4B
1500908651.89,34204,23.0,73676.0,10.51,-9.71,-6.81,0,*49
1500908653.11,34205,23.0,73672.8,10.49,-9.75,-6.89,0,*4D
1500908654.36,34206,23.0,73672.8,10.49,-10.27,-7.43,0,*76
1500908655.57,34207,23.0,73674.0,10.47,-10.93,-8.21,0,*7D
1500908656.81,34208,23.0,73674.5,10.47,-11.55,-8.81,0,*73
1500908658.09,34209,23.0,73670.3,10.41,-10.67,-7.95,0,*7E
1500908659.3,34210,23.0,73672.0,10.41,-11.19,-8.59,0,*71
1500908660.5,34211,23.0,73672.5,10.39,-11.11,-8.45,0,*7A
1500908661.75,34212,23.0,73672.3,10.37,-12.11,-9.75,0,*76
1500908663.01,34213,23.0,73676.8,10.37,-12.71,-10.15,0,*4F
1500908664.21,34214,23.0,73676.5,10.33,-12.25,-9.75,0,*73
1500908665.46,34215,23.0,73668.3,10.31,-11.73,-9.19,0,*7A
1500908666.64,34216,23.0,73666.8,10.29,-11.19,-8.71,0,*73
1500908667.84,34217,23.0,73674.5,10.29,-10.97,-8.63,0,*76
1500908669.06,34218,23.0,73670.3,10.29,-10.79,-8.25,0,*7B
1500908670.28,34219,23.0,73670.3,10.29,-10.45,-8.11,0,*72
1500908671.53,34220,23.0,73670.3,10.25,-11.81,-9.53,0,*7A
1500908672.76,34221,23.0,73672.5,10.23,-12.29,-10.05,0,*47
1500908674.02,34222,23.0,73678.5,10.23,-12.35,-10.35,0,*4A
1500908675.26,34223,23.0,73678.8,10.21,-12.29,-10.41,0,*47
1500908676.5,34224,23.0,73678.5,10.21,-11.59,-9.57,0,*7B
1500908677.7,34225,23.0,73672.8,10.17,-10.27,-8.41,0,*71
1500908678.9,34226,23.0,73672.5,10.17,-10.27,-8.37,0,*73
1500908680.15,34227,23.0,73672.5,10.17,-11.29,-9.57,0,*7A
1500908681.4,34228,23.0,73678.0,10.15,-11.73,-9.75,0,*78
1500908682.68,34229,23.0,73676.8,10.15,-13.01,-10.75,0,*46
1500908683.94,34230,23.0,73676.0,10.11,-11.85,-10.05,0,*43
1500908685.19,34231,23.0,73676.0,10.11,-10.41,-8.71,0,*71
1500908686.44,34232,23.0,73678.5,10.11,-9.53,-7.83,0,*4B
1500908687.66,34233,23.0,73682.0,10.11,-9.27,-7.53,0,*44
1500908688.87,34234,23.0,73682.8,10.13,-9.31,-7.35,0,*46
1500908690.07,34235,23.0,73676.8,10.13,-9.79,-7.87,0,*42
1500908691.27,34236,23.0,73674.8,10.13,-9.19,-7.11,0,*48
1500908692.49,34237,23.0,73674.3,10.13,-9.41,-8.17,0,*4D
1500908693.74,34238,23.0,73670.8,10.15,-8.85,-7.99,0,*44
1500908695.02,34239,23.0,73668.3,10.15,-7.57,-7.73,0,*41
1500908696.26,34240,23.0,73666.0,10.15,-6.27,-7.87,0,*42
1500908697.53,34241,23.0,73664.5,10.15,-5.11,-6.97,0,*45
1500908698.72,34242,23.0,73668.0,10.13,-6.05,-7.19,0,*41
1500908699.94,34243,23.0,73670.0,10.11,-7.53,-8.17,0,*41
1500908701.2,34244,23.0,73668.3,10.11,-8.03,-8.51,0,*4E
1500908702.46,34245,23.0,73670.0,10.07,-5.31,-6.47,0,*4D
1500908703.68,34246,23.0,73670.3,10.07,-3.27,-3.79,0,*47
1500908704.9,34247,23.0,73670.8,10.03,-3.43,-3.27,0,*4B
1500908706.12,34248,23.0,73672.0,10.03,-3.07,-2.75,0,*42
1500908707.32,34249,23.0,73668.0,9.99,-3.79,-2.99,0,*73
1500908708.54,34250,23.0,73668.8,9.99,-5.31,-4.05,0,*72
1500908709.75,34251,23.0,73668.0,10.01,-4.09,-3.35,0,*44
1500908710.98,34252,23.0,73670.8,10.01,-3.71,-3.87,0,*46
1500908712.22,34253,23.0,73670.3,10.01,-3.19,-3.55,0,*46
1500908713.41,34254,23.0,73674.5,9.99,-3.35,-2.83,0,*7C
1500908714.59,34255,23.0,73668.5,9.99,-2.35,-1.51,0,*70
1500908715.81,34256,23.0,73670.3,9.99,-1.71,-1.35,0,*72
1500908717.03,34257,23.0,73672.3,9.99,0.25,0.41,0,*71
1500908718.23,34258,23.0,73670.3,9.99,-1.63,-0.27,0,*4D
1500908719.46,34259,23.0,73664.0,10.01,-2.31,-0.85,0,*79
1500908720.65,34260,23.0,73664.3,9.99,-2.83,-1.59,0,*73
1500908721.84,34261,23.0,73668.8,9.99,-3.27,-3.11,0,*73
1500908723.08,34262,23.0,73672.8,10.01,-2.87,-2.59,0,*4F
1500908724.3,34263,23.0,73672.0,10.01,-3.83,-2.83,0,*4C
1500908725.52,34264,23.0,73672.5,10.03,-6.01,-4.81,0,*42
1500908726.73,34265,23.0,73672.8,10.03,-6.89,-6.27,0,*4D
1500908727.95,34266,23.0,73668.0,10.03,-5.77,-5.51,0,*4E
1500908729.17,34267,23.0,73664.8,10.03,-3.51,-3.39,0,*45
1500908730.4,34268,23.0,73666.3,10.03,-3.79,-2.55,0,*4B
1500908731.6,34269,23.0,73666.0,9.99,-5.19,-3.23,0,*71
1500908732.8,34270,23.0,73666.5,9.99,-4.93,-3.23,0,*7A
1500908733.99,34271,23.0,73662.8,9.99,-4.57,-3.79,0,*7C
1500908735.18,34272,23.0,73668.5,9.99,-3.15,-3.35,0,*76
1500908736.38,34273,23.0,73668.0,9.95,-3.31,-3.03,0,*78
1500908737.59,34274,23.0,73668.3,9.93,-2.95,-2.27,0,*71
1500908738.8,34275,23.0,73666.0,9.93,-4.61,-4.17,0,*78
1500908740.04,34276,23.0,73670.3,9.93,-3.07,-4.85,0,*77
1500908741.27,34277,23.0,73666.0,9.93,-1.63,-5.65,0,*79
1500908742.51,34278,23.0,73668.0,9.89,-1.21,-6.23,0,*7A
1500908743.72,34279,23.0,73670.8,9.91,0.51,-4.13,0,*68
1500908744.9,34280,23.0,73668.3,9.91,1.01,-2.83,0,*55
1500908746.14,34281,23.0,73670.8,9.89,1.85,-0.81,0,*61
1500908747.36,34282,23.0,73668.8,9.91,2.47,0.55,0,*42
1500908748.56,34283,23.0,73668.3,9.91,2.25,0.97,0,*49
1500908749.79,34284,23.0,73664.0,9.91,2.09,0.91,0,*46
1500908750.98,34285,23.0,73670.5,9.91,1.85,0.01,0,*79
1500908752.18,34286,23.0,73674.5,9.95,2.55,0.01,0,*70
1500908753.4,34287,23.0,73668.0,9.95,2.89,0.13,0,*43
1500908754.6,34288,23.0,73664.0,9.95,2.99,0.13,0,*4D
1500908755.82,34289,23.0,73670.3,9.95,3.41,0.13,0,*48
1500908757.05,34290,23.0,73668.3,9.99,4.05,0.41,0,*4C
1500908758.27,34291,23.0,73670.5,10.01,4.49,1.17,0,*4E
1500908759.49,34292,23.0,73670.5,10.01,4.59,1.41,0,*4F
1500908760.73,34293,23.0,73670.5,10.01,4.79,1.71,0,*4F
1500908761.98,34294,23.0,73670.0,10.01,5.27,2.47,0,*44
1500908763.24,34295,23.0,73674.3,10.01,5.89,3.49,0,*4E
1500908764.45,34296,23.0,73674.8,10.05,5.73,3.81,0,*48
1500908765.67,34297,23.0,73674.0,10.05,5.81,4.41,0,*4F
1500908766.91,34298,23.0,73672.0,10.05,5.93,4.71,0,*40
1500908768.11,34299,23.0,73672.3,10.05,6.11,5.19,0,*47
1500908769.35,34300,23.0,73672.5,10.07,6.53,5.49,0,*47
1500908770.56,34301,23.0,73668.0,10.09,6.39,5.59,0,*45
1500908771.75,34302,23.0,73668.5,10.09,6.21,5.59,0,*4F
1500908772.98,34303,23.0,73670.8,10.11,6.33,5.99,0,*48
1500908774.21,34304,23.0,73666.5,10.11,6.17,6.11,0,*4A
1500908775.42,34305,23.0,73668.3,10.13,5.73,6.03,0,*4B
1500908776.63,34306,23.0,73660.8,10.13,5.11,5.55,0,*4C
1500908777.87,34307,23.0,73656.5,10.15,4.53,4.93,0,*47
1500908779.14,34308,23.0,73664.0,10.15,4.71,4.97,0,*4C
1500908780.38,34309,23.0,73666.0,10.15,4.27,4.75,0,*42
1500908781.56,34310,23.0,73666.0,10.17,3.81,4.07,0,*46
1500908782.79,34311,23.0,73670.8,10.17,3.37,3.15,0,*4E
1500908784.06,34312,23.0,73668.5,10.15,4.05,3.45,0,*4C
1500908785.26,34313,23.0,73670.0,10.17,4.79,4.27,0,*47
1500908786.47,34314,23.0,73666.8,10.17,4.79,4.53,0,*43
1500908787.71,34315,23.0,73672.5,10.21,4.93,4.71,0,*43
1500908788.95,34316,23.0,73670.3,10.23,5.19,4.71,0,*41
1500908790.15,34317,23.0,73664.3,10.23,5.11,4.19,0,*46
1500908791.38,34318,23.0,73666.5,10.23,4.67,3.29,0,*4D
1500908792.58,34319,23.0,73664.3,10.21,4.45,3.07,0,*42
1500908793.8,34320,23.0,73664.3,10.21,5.27,3.79,0,*44
1500908795.0,34321,23.0,73666.0,10.23,5.71,4.49,0,*40
1500908796.22,34322,23.0,73668.8,10.23,6.21,5.15,0,*4D
1500908797.43,34323,23.0,73664.3,10.21,6.53,5.59,0,*43
1500908798.66,34324,23.0,73662.5,10.23,6.75,5.93,0,*44
1500908799.91,34325,23.0,73664.8,10.23,6.91,6.17,0,*40
1500908801.11,34326,23.0,73666.8,10.21,6.69,6.21,0,*43
1500908802.29,34327,23.0,73666.5,10.21,7.09,6.75,0,*44
1500908803.5,34328,23.0,73668.5,10.23,7.29,6.97,0,*47
1500908804.71,34329,23.0,73668.8,10.23,6.97,6.79,0,*42
1500908805.97,34330,23.0,73670.3,10.23,7.11,6.91,0,*43
1500908807.21,34331,23.0,73668.8,10.23,6.69,6.61,0,*43
1500908808.47,34332,23.0,73670.0,10.23,7.23,7.11,0,*49
1500908809.67,34333,23.0,73670.3,10.25,7.15,7.05,0,*4E
1500908810.89,34334,23.0,73672.8,10.25,6.73,6.69,0,*43
1500908812.12,34335,23.0,73668.8,10.25,7.15,7.23,0,*4C
1500908813.35,34336,23.0,73670.3,10.27,7.27,7.33,0,*4D
1500908814.52,34337,23.0,73672.0,10.25,7.33,7.33,0,*4B
1500908815.77,34338,23.0,73670.5,10.27,7.23,7.47,0,*44
1500908816.98,34339,23.0,73670.8,10.27,7.33,7.37,0,*43
1500908818.15,34340,23.0,73668.8,10.25,6.83,6.93,0,*4A
1500908819.39,34341,23.0,73664.5,10.25,6.35,6.43,0,*4B
1500908820.63,34342,23.0,73668.3,10.25,6.35,6.43,0,*48
1500908821.86,34343,23.0,73666.5,10.23,6.39,6.33,0,*44
1500908823.09,34344,23.0,73660.5,10.23,6.75,6.87,0,*44
1500908824.35,34345,23.0,73664.0,10.23,7.11,7.19,0,*40
1500908825.56,34346,23.0,73658.5,10.21,6.87,6.97,0,*48
1500908826.79,34347,23.0,73662.5,10.21,6.87,6.91,0,*4F
1500908828.02,34348,23.0,73660.5,10.23,6.75,6.87,0,*48
1500908829.25,34349,23.0,73664.0,10.21,6.87,6.91,0,*41
1500908830.47,34350,23.0,73662.5,10.17,6.73,6.97,0,*41
1500908831.67,34351,23.0,73666.3,10.21,7.09,7.11,0,*46
1500908832.87,34352,23.0,73666.0,10.21,7.01,7.23,0,*4C
1500908834.07,34353,23.0,73662.8,10.21,7.19,7.45,0,*44
1500908835.28,34354,23.0,73664.3,10.21,7.09,7.23,0,*42
1500908836.48,34355,23.0,73664.0,10.21,7.01,7.23,0,*4B
1500908837.68,34356,23.0,73664.3,10.21,6.75,6.91,0,*42
1500908838.91,34357,23.0,73662.3,10.21,6.17,6.39,0,*45
1500908840.12,34358,23.0,73660.5,10.21,6.33,6.53,0,*40
1500908841.32,34359,23.0,73662.3,10.17,6.61,6.83,0,*4E
1500908842.56,34360,23.0,73664.0,10.21,6.61,6.87,0,*45
1500908843.76,34361,23.0,73666.5,10.17,6.87,7.05,0,*42
1500908844.93,34362,23.0,73664.8,10.17,6.83,7.05,0,*45
1500908846.11,34363,23.0,73660.5,10.17,6.75,7.05,0,*4D
1500908847.29,34364,23.0,73670.0,10.17,6.75,6.97,0,*40
1500908848.52,34365,23.0,73670.0,10.15,6.69,6.93,0,*4A
1500908849.72,34366,23.0,73668.8,10.17,6.75,7.19,0,*45
1500908850.97,34367,23.0,73668.0,10.15,6.69,7.23,0,*42
1500908852.24,34368,23.0,73670.8,10.15,6.13,6.91,0,*48
1500908853.46,34369,23.0,73674.8,10.15,5.41,6.57,0,*47
1500908854.71,34370,23.0,73672.3,10.15,5.51,6.35,0,*4A
1500908855.91,34371,23.0,73670.8,10.15,5.45,6.25,0,*4F
1500908857.09,34372,23.0,73674.3,10.17,5.33,6.07,0,*4F
1500908858.32,34373,23.0,73668.5,10.15,5.23,5.89,0,*48
1500908859.52,34374,23.0,73668.5,10.17,4.79,5.45,0,*43
1500908860.78,34375,23.0,73668.5,10.15,4.75,5.55,0,*4D
1500908861.99,34376,23.0,73670.0,10.13,4.53,5.73,0,*48
1500908863.25,34377,23.0,73668.5,10.11,3.67,5.73,0,*4B
1500908864.51,34378,23.0,73668.5,10.11,3.37,5.85,0,*48
1500908865.74,34379,23.0,73670.5,10.13,2.81,5.51,0,*4E
1500908866.96,34380,23.0,73668.0,10.13,1.89,5.23,0,*46
1500908868.17,34381,23.0,73668.8,10.11,1.41,5.19,0,*48
1500908869.43,34382,23.0,73670.5,10.11,0.51,4.79,0,*7C
1500908870.65,34383,23.0,73674.8,10.13,-2.03,3.93,0,*64
1500908871.91,34384,23.0,73670.3,10.11,-5.19,2.85,0,*6B
1500908873.17,34385,23.0,73668.3,10.11,-8.03,0.41,0,*56
1500908874.41,34386,23.0,73670.8,10.11,-7.65,-0.07,0,*45
1500908875.64,34387,23.0,73668.8,10.11,-8.17,-2.31,0,*49
1500908876.91,34388,23.0,73670.3,10.11,-5.77,-2.67,0,*4E
1500908878.19,34389,23.0,73670.0,10.11,-2.47,-2.11,0,*4A
1500908879.37,34390,23.0,73670.8,10.13,-0.07,-0.41,0,*71
1500908880.63,34391,23.0,73668.5,10.11,0.47,1.29,0,*79
1500908881.89,34392,23.0,73670.3,10.11,-1.09,0.91,0,*5E
1500908883.1,34393,23.0,73670.3,10.13,-3.03,0.79,0,*53
1500908884.29,34394,23.0,73670.0,10.13,-4.41,-0.37,0,*72
1500908885.53,34395,23.0,73672.5,10.13,-5.07,-1.91,0,*4D
1500908886.73,34396,23.0,73674.3,10.13,-5.35,-2.15,0,*40
1500908887.99,34397,23.0,73668.5,10.15,-7.61,-3.55,0,*41
1500908889.26,34398,23.0,73674.3,10.15,-8.81,-5.61,0,*4E
1500908890.54,34399,23.0,73670.3,10.15,-7.73,-5.61,0,*4D
1500908891.74,34400,23.0,73670.0,10.13,-7.23,-5.51,0,*4A
1500908892.98,34401,23.0,73674.0,10.15,-6.27,-5.35,0,*4A
1500908894.21,34402,23.0,73670.5,10.15,-4.93,-4.09,0,*4A
1500908895.43,34403,23.0,73672.0,10.15,-4.49,-3.39,0,*48
1500908896.67,34404,23.0,73668.0,10.15,-5.93,-3.19,0,*4B
1500908897.89,34405,23.0,73668.5,10.17,-8.25,-4.01,0,*46
1500908899.11,34406,23.0,73672.5,10.17,-8.93,-4.77,0,*49
1500908900.33,34407,23.0,73672.3,10.17,-9.45,-6.35,0,*46
1500908901.55,34408,23.0,73668.5,10.17,-9.71,-7.39,0,*43
1500908902.75,34409,23.0,73674.0,10.21,-10.89,-8.97,0,*73
1500908903.98,34410,23.0,73672.8,10.17,-10.67,-8.93,0,*7A
1500908905.17,34411,23.0,73674.3,10.17,-10.53,-8.93,0,*7C
1500908906.39,34412,23.0,73672.0,10.15,-10.05,-8.45,0,*75
1500908907.62,34413,23.0,73674.5,10.17,-9.83,-8.11,0,*41
1500908908.87,34414,23.0,73672.0,10.15,-9.61,-7.87,0,*48
1500908910.13,34415,23.0,73672.0,10.15,-9.61,-7.91,0,*4E
1500908911.35,34416,23.0,73672.3,10.17,-9.45,-7.87,0,*4E
1500908912.57,34417,23.0,73670.5,10.17,-9.71,-8.11,0,*48
1500908913.76,34418,23.0,73672.8,10.17,-10.01,-8.55,0,*78
1500908914.94,34419,23.0,73670.5,10.17,-9.75,-8.33,0,*42
1500908916.14,34420,23.0,73668.0,10.21,-10.27,-9.01,0,*72
1500908917.33,34421,23.0,73666.5,10.21,-9.79,-8.59,0,*4C
1500908918.52,34422,23.0,73670.3,10.21,-9.79,-8.59,0,*4F